Stations météo

Publicité
Cardiff, Bute Park, Grande-Bretagne (99160): Température de l'air & dewpoint: 28.03.2020 23:00:00 - 03.04.2020 23:00:00 (BST)Cardiff, Bute Park, Grande-Bretagne (99160): Température de l'air -20cm & Température de l'air -100cm: 28.03.2020 23:00:00 - 03.04.2020 23:00:00 (BST)Cardiff, Bute Park, Grande-Bretagne (99160): Quantités de précipitations: 28.03.2020 23:00:00 - 03.04.2020 23:00:00 (BST)
Date & Time tt [°C] td [°C] tt -20cm [°C] tt -100cm [°C] rr [mm]
03.04.2020 23:00:00 - - - - -
03.04.2020 22:00:00 6,5 4,4 - - 0,0
03.04.2020 21:00:00 8,0 5,1 - - 0,0
03.04.2020 20:00:00 9,3 4,2 - - 0,0
03.04.2020 19:00:00 10,8 4,2 - - 0,0
03.04.2020 18:00:00 12,3 3,6 - - 0,0
03.04.2020 17:00:00 13,1 3,7 - - 0,0
03.04.2020 16:00:00 14,0 3,2 - - 0,0
03.04.2020 15:00:00 13,7 3,3 - - 0,0
03.04.2020 14:00:00 14,2 2,8 - - 0,0
03.04.2020 13:00:00 13,2 2,3 - - 0,0
03.04.2020 12:00:00 11,8 1,7 - - 0,0
03.04.2020 11:00:00 11,2 1,9 - - 0,0
03.04.2020 10:00:00 9,3 4,6 8,7 8,5 0,0
03.04.2020 09:00:00 7,3 6,1 - - 0,0
03.04.2020 08:00:00 5,4 5,3 - - 0,0
03.04.2020 07:00:00 3,8 3,3 - - 0,0
03.04.2020 06:00:00 4,4 3,5 - - 0,0
03.04.2020 05:00:00 5,9 4,7 - - 0,0
03.04.2020 04:00:00 7,3 6,4 - - 0,0
03.04.2020 03:00:00 7,3 6,3 - - 0,0
03.04.2020 02:00:00 8,0 7,1 - - 0,0
03.04.2020 01:00:00 7,7 6,8 - - 0,2
03.04.2020 00:00:00 7,6 6,9 - - 0,0
02.04.2020 23:00:00 7,3 6,3 - - 0,0
02.04.2020 22:00:00 8,4 6,9 - - 0,0
02.04.2020 21:00:00 9,3 7,2 - - 0,0
02.04.2020 20:00:00 9,4 6,6 - - 0,0
02.04.2020 19:00:00 10,3 6,5 - - 0,0
02.04.2020 18:00:00 11,1 7,0 - - 0,0
02.04.2020 17:00:00 10,6 6,5 - - 0,0
02.04.2020 16:00:00 11,4 6,2 - - 0,0
02.04.2020 15:00:00 13,4 6,5 - - 0,0
02.04.2020 14:00:00 11,2 6,9 - - 0,0
02.04.2020 13:00:00 10,3 6,0 - - 0,0
02.04.2020 12:00:00 11,9 4,9 - - 0,0
02.04.2020 11:00:00 10,8 4,8 - - 0,0
02.04.2020 10:00:00 10,8 5,1 8,4 8,5 0,0
02.04.2020 09:00:00 8,4 4,8 - - 0,0
02.04.2020 08:00:00 7,5 4,1 - - 0,0
02.04.2020 07:00:00 6,8 3,2 - - 0,0
02.04.2020 06:00:00 7,1 3,1 - - 0,0
02.04.2020 05:00:00 7,0 2,8 - - 0,0
02.04.2020 04:00:00 6,8 2,7 - - 0,0
02.04.2020 03:00:00 6,8 2,4 - - 0,0
02.04.2020 02:00:00 7,1 2,0 - - 0,0
02.04.2020 01:00:00 7,0 1,6 - - 0,0
02.04.2020 00:00:00 7,0 1,7 - - 0,0
01.04.2020 23:00:00 7,2 2,0 - - 0,0
01.04.2020 22:00:00 7,5 1,9 - - 0,0
01.04.2020 21:00:00 8,0 1,4 - - 0,0
01.04.2020 20:00:00 8,4 1,2 - - 0,0
01.04.2020 19:00:00 8,7 0,3 - - 0,0
01.04.2020 18:00:00 9,0 0,4 - - 0,0
01.04.2020 17:00:00 9,8 -0,9 - - 0,0
01.04.2020 16:00:00 9,6 0,0 - - 0,0
01.04.2020 15:00:00 9,3 -0,6 - - 0,0
01.04.2020 14:00:00 9,7 -1,9 - - 0,0
01.04.2020 13:00:00 10,0 -1,3 - - 0,0
01.04.2020 12:00:00 8,9 -1,3 - - 0,0
01.04.2020 11:00:00 7,8 1,2 - - 0,0
01.04.2020 10:00:00 6,0 1,4 8,2 8,4 0,0
01.04.2020 09:00:00 4,4 1,3 - - 0,0
01.04.2020 08:00:00 2,6 0,7 - - 0,0
01.04.2020 07:00:00 1,5 0,5 - - 0,0
01.04.2020 06:00:00 0,1 -0,6 - - 0,0
01.04.2020 05:00:00 0,3 -0,9 - - 0,0
01.04.2020 04:00:00 1,4 -0,3 - - 0,0
01.04.2020 03:00:00 2,7 -0,3 - - 0,0
01.04.2020 02:00:00 4,4 0,0 - - 0,0
01.04.2020 01:00:00 5,0 0,0 - - 0,0
01.04.2020 00:00:00 5,1 -0,3 - - 0,0
31.03.2020 23:00:00 5,3 -0,3 - - 0,0
31.03.2020 22:00:00 6,3 -0,2 - - 0,0
31.03.2020 21:00:00 7,7 -0,4 - - 0,0
31.03.2020 20:00:00 9,0 -1,0 - - 0,0
31.03.2020 19:00:00 10,1 -1,1 - - 0,0
31.03.2020 18:00:00 10,6 -1,4 - - 0,0
31.03.2020 17:00:00 10,7 -1,3 - - 0,0
31.03.2020 16:00:00 10,4 -0,9 - - 0,0
31.03.2020 15:00:00 10,3 -1,2 - - 0,0
31.03.2020 14:00:00 10,9 -0,8 - - 0,0
31.03.2020 13:00:00 10,0 -0,6 - - 0,0
31.03.2020 12:00:00 9,8 0,1 - - 0,0
31.03.2020 11:00:00 8,0 -0,7 - - 0,0
31.03.2020 10:00:00 6,7 0,5 8,2 8,4 0,0
31.03.2020 09:00:00 6,0 1,7 - - 0,0
31.03.2020 08:00:00 5,4 1,2 - - 0,0
31.03.2020 07:00:00 5,7 1,4 - - 0,0
31.03.2020 06:00:00 5,7 1,2 - - 0,0
31.03.2020 05:00:00 6,1 1,3 - - 0,0
31.03.2020 04:00:00 6,4 2,3 - - 0,0
31.03.2020 03:00:00 6,4 2,7 - - 0,0
31.03.2020 02:00:00 7,7 0,9 - - 0,0
31.03.2020 01:00:00 8,1 1,1 - - 0,0
31.03.2020 00:00:00 8,2 1,2 - - 0,0
30.03.2020 23:00:00 8,3 1,3 - - 0,0
30.03.2020 22:00:00 8,3 1,3 - - 0,0
30.03.2020 21:00:00 8,2 1,2 - - 0,0
30.03.2020 20:00:00 8,3 1,5 - - 0,0
30.03.2020 19:00:00 8,5 1,1 - - 0,0
30.03.2020 18:00:00 8,9 1,4 - - 0,0
30.03.2020 17:00:00 9,9 0,5 - - 0,0
30.03.2020 16:00:00 9,5 0,9 - - 0,0
30.03.2020 15:00:00 10,0 0,6 - - 0,0
30.03.2020 14:00:00 11,0 0,6 - - 0,0
30.03.2020 13:00:00 9,9 1,6 - - 0,0
30.03.2020 12:00:00 9,5 0,9 - - 0,0
30.03.2020 11:00:00 7,4 -0,6 - - 0,0
30.03.2020 10:00:00 6,7 -1,2 7,9 8,5 0,0
30.03.2020 09:00:00 4,7 -1,4 - - 0,0
30.03.2020 08:00:00 1,4 -3,1 - - 0,0
30.03.2020 07:00:00 2,4 -4,3 - - 0,0
30.03.2020 06:00:00 3,5 -4,3 - - 0,0
30.03.2020 05:00:00 3,9 -4,6 - - 0,0
30.03.2020 04:00:00 3,1 -3,2 - - 0,0
30.03.2020 03:00:00 2,9 -3,2 - - 0,0
30.03.2020 02:00:00 3,5 -3,5 - - 0,0
30.03.2020 01:00:00 4,1 -3,0 - - 0,0
30.03.2020 00:00:00 5,1 -3,1 - - 0,0
29.03.2020 23:00:00 5,7 -3,1 - - 0,0
29.03.2020 22:00:00 5,6 -4,0 - - 0,0
29.03.2020 21:00:00 6,2 -3,6 - - 0,0
29.03.2020 20:00:00 6,8 -4,3 - - 0,0
29.03.2020 19:00:00 7,6 -5,4 - - 0,0
29.03.2020 18:00:00 8,3 -6,2 - - 0,0
29.03.2020 17:00:00 9,0 -6,5 - - 0,0
29.03.2020 16:00:00 9,0 -5,1 - - 0,0
29.03.2020 15:00:00 8,2 -5,2 - - 0,0
29.03.2020 14:00:00 8,6 -4,9 - - 0,0
29.03.2020 13:00:00 8,0 -4,3 - - 0,0
29.03.2020 12:00:00 7,4 -3,1 - - 0,0
29.03.2020 11:00:00 5,5 -3,7 - - 0,0
29.03.2020 10:00:00 5,8 -3,4 8,0 8,5 0,0
29.03.2020 09:00:00 4,7 -3,1 - - 0,0
29.03.2020 08:00:00 3,6 -3,6 - - 0,0
29.03.2020 07:00:00 3,4 -4,2 - - 0,0
29.03.2020 06:00:00 3,6 -3,4 - - 0,0
29.03.2020 05:00:00 3,9 -3,1 - - 0,0
29.03.2020 04:00:00 4,3 -1,6 - - 0,0
29.03.2020 03:00:00 4,4 -1,8 - - 0,0
29.03.2020 02:00:00 4,5 -2,1 - - 0,0
29.03.2020 01:00:00 5,0 -2,0 - - 0,0
29.03.2020 00:00:00 5,7 -1,8 - - 0,0
28.03.2020 23:00:00 - - - - -

tt = Température de l'air
td = dewpoint
tt -20cm = Température de l'air -20cm
tt -100cm = Température de l'air -100cm
rr = Quantités de précipitations

stations d'obs. à proximité